| time (UTC) | temp F | wind direction | speed MPH | gust MPH | rain 1hr in | rain 24hr in | rain mn in | humidity % | barometer mb |
| 20260903193044 | 93 | 166 | 4.0 | 11.0 | 0.00 | 0.00 | 0.00 | 59 | 1012.4 |
| 20260903192522 | 92 | 136 | 5.0 | 12.0 | 0.00 | 0.00 | 0.00 | 60 | 1012.2 |
| 20260903192020 | 93 | 141 | 5.0 | 11.0 | 0.00 | 0.00 | 0.00 | 59 | 1012.3 |
| 20260903191538 | 93 | 182 | 4.0 | 9.0 | 0.00 | 0.00 | 0.00 | 58 | 1012.5 |
| 20260903191016 | 92 | 186 | 4.0 | 10.0 | 0.00 | 0.00 | 0.00 | 60 | 1012.6 |
| 20260903190534 | 91 | 194 | 3.0 | 8.0 | 0.00 | 0.00 | 0.00 | 61 | 1012.6 |
| 20260903190032 | 91 | 139 | 5.0 | 11.0 | 0.00 | 0.00 | 0.00 | 60 | 1012.8 |
| 20260903185530 | 92 | 194 | 4.0 | 9.0 | 0.00 | 0.00 | 0.00 | 59 | 1012.7 |
| 20260903185027 | 93 | 167 | 3.0 | 10.0 | 0.00 | 0.00 | 0.00 | 58 | 1012.8 |
| 20260903184525 | 93 | 198 | 4.0 | 9.0 | 0.00 | 0.00 | 0.00 | 57 | 1012.8 |
| 20260903184024 | 94 | 216 | 5.0 | 12.0 | 0.00 | 0.00 | 0.00 | 55 | 1012.8 |
| 20260903183522 | 94 | 219 | 6.0 | 11.0 | 0.00 | 0.00 | 0.00 | 56 | 1013.0 |
| 20260903183020 | 94 | 210 | 4.0 | 11.0 | 0.00 | 0.00 | 0.00 | 55 | 1013.1 |
| 20260903182518 | 94 | 206 | 4.0 | 10.0 | 0.00 | 0.00 | 0.00 | 56 | 1013.3 |
| 20260903182016 | 93 | 191 | 4.0 | 9.0 | 0.00 | 0.00 | 0.00 | 57 | 1013.3 |
| 20260903181515 | 93 | 197 | 4.0 | 11.0 | 0.00 | 0.00 | 0.00 | 58 | 1013.3 |
| 20260903181034 | 93 | 182 | 3.0 | 7.0 | 0.00 | 0.00 | 0.00 | 58 | 1013.2 |
| 20260903180532 | 93 | 161 | 4.0 | 14.0 | 0.00 | 0.00 | 0.00 | 58 | 1013.3 |
| 20260903180030 | 93 | 196 | 4.0 | 8.0 | 0.00 | 0.00 | 0.00 | 59 | 1013.3 |
| 20260903175528 | 92 | 209 | 4.0 | 9.0 | 0.00 | 0.00 | 0.00 | 60 | 1013.3 |
| 20260903175027 | 92 | 192 | 3.0 | 9.0 | 0.00 | 0.00 | 0.00 | 60 | 1013.3 |
| 20260903174524 | 92 | 189 | 4.0 | 9.0 | 0.00 | 0.00 | 0.00 | 61 | 1013.4 |
| 20260903174022 | 92 | 196 | 3.0 | 7.0 | 0.00 | 0.00 | 0.00 | 60 | 1013.5 |
| 20260903173520 | 92 | 188 | 3.0 | 9.0 | 0.00 | 0.00 | 0.00 | 60 | 1013.5 |
| 20260903173018 | 91 | 160 | 4.0 | 11.0 | 0.00 | 0.00 | 0.00 | 62 | 1013.7 |
| 20260903172516 | 91 | 152 | 4.0 | 11.0 | 0.00 | 0.00 | 0.00 | 62 | 1013.6 |
| 20260903172034 | 91 | 197 | 3.0 | 7.0 | 0.00 | 0.00 | 0.00 | 63 | 1013.8 |
| 20260903171532 | 90 | 164 | 3.0 | 9.0 | 0.00 | 0.00 | 0.00 | 63 | 1013.8 |
| 20260903171029 | 90 | 168 | 3.0 | 7.0 | 0.00 | 0.00 | 0.00 | 63 | 1013.7 |
| 20260903170527 | 90 | 152 | 4.0 | 11.0 | 0.00 | 0.00 | 0.00 | 64 | 1013.7 |
| 20260903170046 | 90 | 201 | 3.0 | 9.0 | 0.00 | 0.00 | 0.00 | 63 | 1013.8 |
| 20260903165523 | 90 | 169 | 4.0 | 9.0 | 0.00 | 0.00 | 0.00 | 63 | 1013.7 |
| 20260903165021 | 90 | 191 | 3.0 | 10.0 | 0.00 | 0.00 | 0.00 | 64 | 1013.7 |
| 20260903164519 | 89 | 163 | 3.0 | 7.0 | 0.00 | 0.00 | 0.00 | 64 | 1013.8 |
| 20260903164017 | 89 | 152 | 4.0 | 9.0 | 0.00 | 0.00 | 0.00 | 65 | 1013.8 |
| 20260903163535 | 89 | 204 | 3.0 | 7.0 | 0.00 | 0.00 | 0.00 | 65 | 1013.9 |
| 20260903163033 | 89 | 189 | 4.0 | 10.0 | 0.00 | 0.00 | 0.00 | 65 | 1013.9 |
| 20260903162530 | 89 | 159 | 4.0 | 9.0 | 0.00 | 0.00 | 0.00 | 64 | 1013.8 |
| 20260903162029 | 89 | 156 | 4.0 | 9.0 | 0.00 | 0.00 | 0.00 | 65 | 1013.9 |
| 20260903161527 | 89 | 164 | 3.0 | 8.0 | 0.00 | 0.00 | 0.00 | 65 | 1013.9 |
| 20260903161025 | 89 | 138 | 4.0 | 9.0 | 0.00 | 0.00 | 0.00 | 65 | 1013.9 |
| 20260903160523 | 89 | 194 | 3.0 | 7.0 | 0.00 | 0.00 | 0.00 | 65 | 1013.9 |
| 20260903160021 | 88 | 210 | 3.0 | 6.0 | 0.00 | 0.00 | 0.00 | 66 | 1013.9 |
| 20260903155519 | 88 | 207 | 3.0 | 7.0 | 0.00 | 0.00 | 0.00 | 66 | 1013.9 |
| 20260903155017 | 87 | 155 | 3.0 | 7.0 | 0.00 | 0.00 | 0.00 | 68 | 1013.9 |
| 20260903154515 | 87 | 173 | 3.0 | 7.0 | 0.00 | 0.00 | 0.00 | 69 | 1013.8 |
| 20260903154054 | 85 | 174 | 3.0 | 8.0 | 0.00 | 0.00 | 0.00 | 72 | 1013.9 |
| 20260903153531 | 84 | 178 | 3.0 | 7.0 | 0.00 | 0.00 | 0.00 | 74 | 1013.9 |
| 20260903153030 | 83 | 164 | 4.0 | 7.0 | 0.00 | 0.00 | 0.00 | 74 | 1013.8 |
| 20260903152528 | 83 | 160 | 3.0 | 7.0 | 0.00 | 0.00 | 0.00 | 74 | 1013.7 |
| 20260903152026 | 83 | 205 | 2.0 | 6.0 | 0.00 | 0.00 | 0.00 | 76 | 1013.8 |
| 20260903151524 | 82 | 136 | 4.0 | 10.0 | 0.00 | 0.00 | 0.00 | 76 | 1013.9 |
| 20260903151041 | 82 | 197 | 3.0 | 7.0 | 0.00 | 0.00 | 0.00 | 77 | 1013.9 |
| 20260903150519 | 82 | 173 | 2.0 | 6.0 | 0.00 | 0.00 | 0.00 | 77 | 1014.0 |
| 20260903150017 | 81 | 165 | 3.0 | 6.0 | 0.00 | 0.00 | 0.00 | 78 | 1014.1 |
| 20260903145515 | 81 | 186 | 3.0 | 6.0 | 0.00 | 0.00 | 0.00 | 78 | 1014.1 |
| 20260903145033 | 81 | 134 | 3.0 | 8.0 | 0.00 | 0.00 | 0.00 | 78 | 1014.1 |
| 20260903144531 | 81 | 163 | 3.0 | 8.0 | 0.00 | 0.00 | 0.00 | 77 | 1014.1 |
| 20260903144049 | 81 | 138 | 3.0 | 9.0 | 0.00 | 0.00 | 0.00 | 77 | 1014.1 |
| 20260903143528 | 81 | 134 | 4.0 | 6.0 | 0.00 | 0.00 | 0.00 | 78 | 1014.1 |
| 20260903143026 | 81 | 128 | 3.0 | 8.0 | 0.00 | 0.00 | 0.00 | 78 | 1014.1 |
| 20260903142524 | 81 | 105 | 4.0 | 7.0 | 0.00 | 0.00 | 0.00 | 78 | 1013.9 |
| 20260903142022 | 80 | 146 | 2.0 | 5.0 | 0.00 | 0.00 | 0.00 | 79 | 1014.0 |
| 20260903141540 | 80 | 161 | 3.0 | 6.0 | 0.00 | 0.00 | 0.00 | 79 | 1014.0 |
| 20260903141019 | 80 | 180 | 3.0 | 6.0 | 0.00 | 0.00 | 0.00 | 80 | 1013.9 |
| 20260903140517 | 79 | 120 | 2.0 | 5.0 | 0.00 | 0.00 | 0.00 | 81 | 1014.1 |
| 20260903140035 | 79 | 144 | 3.0 | 6.0 | 0.00 | 0.00 | 0.00 | 81 | 1014.2 |
| 20260903135534 | 79 | 142 | 2.0 | 6.0 | 0.00 | 0.00 | 0.00 | 81 | 1014.1 |
| 20260903135033 | 78 | 131 | 2.0 | 6.0 | 0.00 | 0.00 | 0.00 | 82 | 1014.0 |
| 20260903134530 | 78 | 114 | 2.0 | 4.0 | 0.00 | 0.00 | 0.00 | 82 | 1013.9 |
| 20260903134048 | 78 | 95 | 2.0 | 4.0 | 0.00 | 0.00 | 0.00 | 82 | 1013.9 |
| 20260903133526 | 78 | 79 | 2.0 | 6.0 | 0.00 | 0.00 | 0.00 | 81 | 1013.8 |
| 20260903133024 | 78 | 82 | 2.0 | 4.0 | 0.00 | 0.00 | 0.00 | 81 | 1013.7 |
| 20260903132522 | 78 | 73 | 2.0 | 4.0 | 0.00 | 0.00 | 0.00 | 82 | 1013.7 |
| 20260903132020 | 77 | 71 | 2.0 | 5.0 | 0.00 | 0.00 | 0.00 | 82 | 1013.6 |
| 20260903131517 | 77 | 82 | 1.0 | 3.0 | 0.00 | 0.00 | 0.00 | 82 | 1013.6 |
| 20260903131015 | 77 | 89 | 2.0 | 4.0 | 0.00 | 0.00 | 0.00 | 82 | 1013.6 |
| 20260903130533 | 77 | 134 | 1.0 | 4.0 | 0.00 | 0.00 | 0.00 | 82 | 1013.8 |
| 20260903130031 | 77 | 102 | 1.0 | 3.0 | 0.00 | 0.00 | 0.00 | 82 | 1013.8 |
| 20260903125548 | 77 | 143 | 2.0 | 4.0 | 0.00 | 0.00 | 0.00 | 82 | 1013.7 |
| 20260903125025 | 77 | 119 | 2.0 | 4.0 | 0.00 | 0.00 | 0.00 | 82 | 1013.8 |
| 20260903124543 | 77 | 110 | 1.0 | 3.0 | 0.00 | 0.00 | 0.00 | 82 | 1013.9 |
| 20260903124020 | 77 | 92 | 1.0 | 3.0 | 0.00 | 0.00 | 0.00 | 82 | 1013.6 |
| 20260903123518 | 77 | 181 | 1.0 | 3.0 | 0.00 | 0.00 | 0.00 | 82 | 1013.6 |
| 20260903123016 | 77 | 166 | 2.0 | 3.0 | 0.00 | 0.00 | 0.00 | 82 | 1013.6 |
| 20260903122534 | 77 | 141 | 1.0 | 3.0 | 0.00 | 0.00 | 0.00 | 81 | 1013.6 |
| 20260903122033 | 77 | 115 | 2.0 | 4.0 | 0.00 | 0.00 | 0.00 | 81 | 1013.4 |
| 20260903121531 | 77 | 140 | 2.0 | 5.0 | 0.00 | 0.00 | 0.00 | 81 | 1013.4 |
| 20260903121029 | 77 | 124 | 2.0 | 5.0 | 0.00 | 0.00 | 0.00 | 81 | 1013.4 |
| 20260903120527 | 77 | 57 | 2.0 | 4.0 | 0.00 | 0.00 | 0.00 | 81 | 1013.6 |
| 20260903120025 | 77 | 77 | 2.0 | 4.0 | 0.00 | 0.00 | 0.00 | 81 | 1013.7 |
| 20260903115523 | 77 | 113 | 2.0 | 5.0 | 0.00 | 0.00 | 0.00 | 81 | 1013.5 |
| 20260903115022 | 77 | 101 | 2.0 | 6.0 | 0.00 | 0.00 | 0.00 | 81 | 1013.4 |
| 20260903114520 | 77 | 123 | 2.0 | 4.0 | 0.00 | 0.00 | 0.00 | 82 | 1013.4 |
| 20260903114018 | 77 | 132 | 2.0 | 4.0 | 0.00 | 0.00 | 0.00 | 82 | 1013.4 |
| 20260903113516 | 77 | 110 | 2.0 | 4.0 | 0.00 | 0.00 | 0.00 | 81 | 1013.5 |
| 20260903113055 | 77 | 123 | 3.0 | 5.0 | 0.00 | 0.00 | 0.00 | 81 | 1013.4 |
| 20260903112533 | 77 | 101 | 2.0 | 4.0 | 0.00 | 0.00 | 0.00 | 81 | 1013.3 |
| 20260903112031 | 77 | 89 | 1.0 | 4.0 | 0.00 | 0.00 | 0.00 | 82 | 1013.4 |
| 20260903111528 | 77 | 118 | 2.0 | 4.0 | 0.00 | 0.00 | 0.00 | 82 | 1013.4 |
| 20260903111027 | 77 | 98 | 2.0 | 3.0 | 0.00 | 0.00 | 0.00 | 81 | 1013.2 |
| 20260903110525 | 77 | 61 | 3.0 | 5.0 | 0.00 | 0.00 | 0.00 | 81 | 1013.1 |
| 20260903110023 | 77 | 88 | 3.0 | 5.0 | 0.00 | 0.00 | 0.00 | 81 | 1013.2 |
| 20260903105522 | 77 | 123 | 2.0 | 6.0 | 0.00 | 0.00 | 0.00 | 82 | 1013.0 |
| 20260903105039 | 77 | 123 | 1.0 | 4.0 | 0.00 | 0.00 | 0.00 | 82 | 1013.1 |
| 20260903104537 | 77 | 116 | 1.0 | 3.0 | 0.00 | 0.00 | 0.00 | 81 | 1013.0 |
| 20260903104016 | 77 | 117 | 2.0 | 4.0 | 0.00 | 0.00 | 0.00 | 81 | 1013.1 |
| 20260903103533 | 77 | 129 | 1.0 | 4.0 | 0.00 | 0.00 | 0.00 | 81 | 1013.2 |
| 20260903103032 | 77 | 115 | 1.0 | 3.0 | 0.00 | 0.00 | 0.00 | 81 | 1013.2 |
| 20260903102551 | 77 | 108 | 1.0 | 2.0 | 0.00 | 0.00 | 0.00 | 81 | 1013.2 |
| 20260903102049 | 77 | 76 | 1.0 | 2.0 | 0.00 | 0.00 | 0.00 | 81 | 1013.1 |
| 20260903101528 | 77 | 64 | 1.0 | 2.0 | 0.00 | 0.00 | 0.00 | 81 | 1013.1 |
| 20260903101046 | 77 | 68 | 1.0 | 2.0 | 0.00 | 0.00 | 0.00 | 80 | 1013.1 |
| 20260903100523 | 77 | 76 | 2.0 | 3.0 | 0.00 | 0.00 | 0.00 | 80 | 1013.2 |
| 20260903100021 | 77 | 75 | 1.0 | 3.0 | 0.00 | 0.00 | 0.00 | 80 | 1013.1 |
| 20260903095541 | 78 | 73 | 2.0 | 3.0 | 0.00 | 0.00 | 0.00 | 80 | 1013.0 |
| 20260903095018 | 78 | 81 | 2.0 | 3.0 | 0.00 | 0.00 | 0.00 | 79 | 1013.0 |
| 20260903094516 | 78 | 75 | 2.0 | 4.0 | 0.00 | 0.00 | 0.00 | 79 | 1012.9 |
| 20260903094035 | 78 | 88 | 1.0 | 4.0 | 0.00 | 0.00 | 0.00 | 79 | 1013.1 |
| 20260903093612 | 78 | 76 | 1.0 | 2.0 | 0.00 | 0.00 | 0.00 | 79 | 1013.0 |
| 20260903093031 | 78 | 88 | 1.0 | 2.0 | 0.00 | 0.00 | 0.00 | 79 | 1013.0 |
| 20260903092528 | 78 | 105 | 1.0 | 3.0 | 0.00 | 0.00 | 0.00 | 79 | 1013.0 |
| 20260903092027 | 78 | 95 | 1.0 | 2.0 | 0.00 | 0.00 | 0.00 | 79 | 1013.0 |
| 20260903091525 | 78 | 89 | 1.0 | 2.0 | 0.00 | 0.00 | 0.00 | 79 | 1013.1 |
| 20260903091023 | 78 | 92 | 0.0 | 2.0 | 0.00 | 0.00 | 0.00 | 78 | 1013.2 |
| 20260903090522 | 78 | 137 | 0.0 | 2.0 | 0.00 | 0.00 | 0.00 | 78 | 1013.2 |
| 20260903090019 | 78 | 142 | 0.0 | 2.0 | 0.00 | 0.00 | 0.00 | 78 | 1013.2 |
| 20260903085518 | 78 | 136 | 0.0 | 2.0 | 0.00 | 0.00 | 0.00 | 78 | 1013.1 |
| 20260903085016 | 78 | 0.0 | 2.0 | 0.00 | 0.00 | 0.00 | 78 | 1013.0 | |
| 20260903084534 | 78 | 142 | 1.0 | 2.0 | 0.00 | 0.00 | 0.00 | 77 | 1013.1 |
| 20260903084032 | 78 | 169 | 0.0 | 1.0 | 0.00 | 0.00 | 0.00 | 77 | 1013.3 |
| 20260903083530 | 78 | 236 | 0.0 | 2.0 | 0.00 | 0.00 | 0.00 | 77 | 1013.2 |
| 20260903083049 | 79 | 142 | 1.0 | 2.0 | 0.00 | 0.00 | 0.00 | 77 | 1013.2 |
| 20260903082528 | 79 | 127 | 1.0 | 3.0 | 0.00 | 0.00 | 0.00 | 77 | 1013.1 |
| 20260903082026 | 79 | 132 | 0.0 | 2.0 | 0.00 | 0.00 | 0.00 | 77 | 1013.2 |
| 20260903081526 | 79 | 141 | 0.0 | 2.0 | 0.00 | 0.00 | 0.00 | 76 | 1013.1 |
| 20260903081022 | 79 | 121 | 1.0 | 2.0 | 0.00 | 0.00 | 0.00 | 76 | 1013.2 |
| 20260903080521 | 79 | 93 | 1.0 | 3.0 | 0.00 | 0.00 | 0.00 | 76 | 1013.2 |
| 20260903080019 | 79 | 81 | 1.0 | 2.0 | 0.00 | 0.00 | 0.00 | 76 | 1013.2 |
| 20260903075517 | 79 | 81 | 1.0 | 2.0 | 0.00 | 0.00 | 0.00 | 76 | 1013.1 |
| 20260903075016 | 79 | 99 | 1.0 | 3.0 | 0.00 | 0.00 | 0.00 | 75 | 1013.2 |
| 20260903074535 | 79 | 90 | 2.0 | 3.0 | 0.00 | 0.00 | 0.00 | 75 | 1013.2 |
| 20260903074033 | 80 | 94 | 1.0 | 3.0 | 0.00 | 0.00 | 0.00 | 75 | 1013.1 |
| 20260903073531 | 79 | 114 | 1.0 | 3.0 | 0.00 | 0.00 | 0.00 | 75 | 1013.0 |
| 20260903073030 | 80 | 138 | 1.0 | 2.0 | 0.00 | 0.00 | 0.00 | 74 | 1013.1 |
| 20260903072528 | 80 | 123 | 1.0 | 2.0 | 0.00 | 0.00 | 0.00 | 74 | 1013.0 |
| 20260903072026 | 80 | 105 | 1.0 | 2.0 | 0.00 | 0.00 | 0.00 | 74 | 1012.9 |
| 20260903071525 | 80 | 81 | 1.0 | 3.0 | 0.00 | 0.00 | 0.00 | 73 | 1013.0 |
| 20260903071043 | 80 | 111 | 1.0 | 4.0 | 0.00 | 0.00 | 0.00 | 73 | 1013.1 |
| 20260903070521 | 80 | 116 | 2.0 | 4.0 | 0.00 | 0.00 | 0.00 | 73 | 1013.2 |
| 20260903070105 | 80 | 124 | 2.0 | 5.0 | 0.00 | 0.00 | 0.00 | 72 | 1013.0 |
| 20260903065517 | 81 | 121 | 1.0 | 5.0 | 0.00 | 0.00 | 0.00 | 72 | 1013.3 |
| 20260903065015 | 81 | 100 | 2.0 | 5.0 | 0.00 | 0.00 | 0.00 | 71 | 1013.5 |
| 20260903064534 | 81 | 119 | 2.0 | 5.0 | 0.00 | 0.00 | 0.00 | 71 | 1013.5 |
| 20260903064112 | 81 | 111 | 3.0 | 6.0 | 0.00 | 0.00 | 0.00 | 71 | 1013.5 |
| 20260903063531 | 81 | 92 | 1.0 | 4.0 | 0.00 | 0.00 | 0.00 | 71 | 1013.4 |
| 20260903063029 | 81 | 113 | 2.0 | 5.0 | 0.00 | 0.00 | 0.00 | 70 | 1013.4 |
| 20260903062527 | 81 | 114 | 4.0 | 9.0 | 0.00 | 0.00 | 0.00 | 70 | 1013.5 |
| 20260903062025 | 82 | 109 | 3.0 | 7.0 | 0.00 | 0.00 | 0.00 | 69 | 1013.7 |
| 20260903061524 | 82 | 129 | 3.0 | 6.0 | 0.00 | 0.00 | 0.00 | 69 | 1013.7 |
| 20260903061042 | 82 | 112 | 3.0 | 6.0 | 0.00 | 0.00 | 0.00 | 69 | 1013.7 |
| 20260903060520 | 82 | 109 | 3.0 | 7.0 | 0.00 | 0.00 | 0.00 | 68 | 1013.6 |
| 20260903060018 | 82 | 118 | 5.0 | 9.0 | 0.00 | 0.00 | 0.00 | 68 | 1013.6 |
| 20260903055516 | 82 | 121 | 3.0 | 8.0 | 0.00 | 0.00 | 0.00 | 67 | 1013.8 |
| 20260903055034 | 83 | 104 | 3.0 | 6.0 | 0.00 | 0.00 | 0.00 | 67 | 1013.7 |
| 20260903054532 | 83 | 104 | 4.0 | 10.0 | 0.00 | 0.00 | 0.00 | 67 | 1013.7 |
| 20260903054030 | 83 | 92 | 3.0 | 8.0 | 0.00 | 0.00 | 0.00 | 67 | 1013.7 |
| 20260903053548 | 83 | 86 | 3.0 | 6.0 | 0.00 | 0.00 | 0.00 | 66 | 1013.6 |
| 20260903053026 | 83 | 96 | 3.0 | 10.0 | 0.00 | 0.00 | 0.00 | 66 | 1013.6 |
| 20260903052525 | 83 | 93 | 3.0 | 8.0 | 0.00 | 0.00 | 0.00 | 65 | 1013.7 |
| 20260903052022 | 84 | 92 | 3.0 | 6.0 | 0.00 | 0.00 | 0.00 | 64 | 1013.8 |
| 20260903051540 | 84 | 102 | 4.0 | 8.0 | 0.00 | 0.00 | 0.00 | 63 | 1013.7 |
| 20260903051021 | 84 | 117 | 3.0 | 7.0 | 0.00 | 0.00 | 0.00 | 63 | 1013.8 |
| 20260903050517 | 84 | 99 | 2.0 | 6.0 | 0.00 | 0.00 | 0.00 | 63 | 1013.6 |
| 20260903050016 | 84 | 101 | 3.0 | 6.0 | 0.00 | 0.00 | 0.00 | 62 | 1013.6 |
| 20260903045535 | 85 | 104 | 4.0 | 8.0 | 0.00 | 0.00 | 0.00 | 62 | 1013.6 |
| 20260903045033 | 85 | 99 | 4.0 | 7.0 | 0.00 | 0.00 | 0.00 | 61 | 1013.6 |
| 20260903044531 | 85 | 97 | 3.0 | 8.0 | 0.00 | 0.00 | 0.00 | 61 | 1013.5 |
| 20260903044050 | 85 | 94 | 3.0 | 6.0 | 0.00 | 0.00 | 0.00 | 62 | 1013.5 |
| 20260903043528 | 85 | 106 | 2.0 | 4.0 | 0.00 | 0.00 | 0.00 | 62 | 1013.5 |
| 20260903043025 | 85 | 107 | 2.0 | 4.0 | 0.00 | 0.00 | 0.00 | 61 | 1013.6 |
| 20260903042543 | 85 | 112 | 2.0 | 4.0 | 0.00 | 0.00 | 0.00 | 61 | 1013.6 |
| 20260903042021 | 86 | 131 | 3.0 | 7.0 | 0.00 | 0.00 | 0.00 | 61 | 1013.7 |
| 20260903041520 | 86 | 156 | 2.0 | 10.0 | 0.00 | 0.00 | 0.00 | 60 | 1013.6 |
| 20260903041018 | 86 | 118 | 3.0 | 10.0 | 0.00 | 0.00 | 0.00 | 60 | 1013.6 |
| 20260903040536 | 86 | 116 | 4.0 | 9.0 | 0.00 | 0.00 | 0.00 | 59 | 1013.6 |
| 20260903040034 | 86 | 137 | 3.0 | 5.0 | 0.00 | 0.00 | 0.00 | 59 | 1013.5 |
| 20260903035532 | 87 | 134 | 4.0 | 9.0 | 0.00 | 0.00 | 0.00 | 59 | 1013.5 |
| 20260903035030 | 87 | 130 | 4.0 | 11.0 | 0.00 | 0.00 | 0.00 | 58 | 1013.7 |
| 20260903034528 | 87 | 145 | 4.0 | 10.0 | 0.00 | 0.00 | 0.00 | 58 | 1013.6 |
| 20260903034027 | 87 | 134 | 4.0 | 11.0 | 0.00 | 0.00 | 0.00 | 58 | 1013.5 |
| 20260903033525 | 87 | 148 | 4.0 | 9.0 | 0.00 | 0.00 | 0.00 | 57 | 1013.6 |
| 20260903033023 | 88 | 129 | 3.0 | 8.0 | 0.00 | 0.00 | 0.00 | 57 | 1013.5 |
| 20260903032521 | 88 | 142 | 4.0 | 8.0 | 0.00 | 0.00 | 0.00 | 56 | 1013.6 |
| 20260903032020 | 88 | 162 | 1.0 | 4.0 | 0.00 | 0.00 | 0.00 | 56 | 1013.4 |
| 20260903031538 | 88 | 137 | 4.0 | 8.0 | 0.00 | 0.00 | 0.00 | 55 | 1013.6 |
| 20260903031016 | 89 | 171 | 3.0 | 7.0 | 0.00 | 0.00 | 0.00 | 55 | 1013.6 |
| 20260903030515 | 89 | 148 | 4.0 | 9.0 | 0.00 | 0.00 | 0.00 | 54 | 1013.5 |
| 20260903030034 | 89 | 126 | 5.0 | 12.0 | 0.00 | 0.00 | 0.00 | 54 | 1013.4 |
| 20260903025532 | 90 | 156 | 5.0 | 13.0 | 0.00 | 0.00 | 0.00 | 53 | 1013.2 |
| 20260903025051 | 90 | 153 | 4.0 | 9.0 | 0.00 | 0.00 | 0.00 | 52 | 1013.2 |
| 20260903024529 | 90 | 134 | 4.0 | 11.0 | 0.00 | 0.00 | 0.00 | 51 | 1013.2 |
| 20260903024028 | 90 | 135 | 3.0 | 7.0 | 0.00 | 0.00 | 0.00 | 51 | 1013.1 |
| 20260903023526 | 91 | 130 | 3.0 | 7.0 | 0.00 | 0.00 | 0.00 | 50 | 1012.8 |
| 20260903023024 | 91 | 127 | 4.0 | 13.0 | 0.00 | 0.00 | 0.00 | 50 | 1012.8 |
| 20260903022523 | 91 | 135 | 2.0 | 7.0 | 0.00 | 0.00 | 0.00 | 50 | 1012.6 |
| 20260903022021 | 91 | 126 | 4.0 | 10.0 | 0.00 | 0.00 | 0.00 | 49 | 1012.6 |
| 20260903021519 | 91 | 125 | 5.0 | 10.0 | 0.00 | 0.00 | 0.00 | 49 | 1012.6 |
| 20260903021017 | 92 | 126 | 4.0 | 9.0 | 0.00 | 0.00 | 0.00 | 49 | 1012.5 |
| 20260903020535 | 92 | 119 | 5.0 | 11.0 | 0.00 | 0.00 | 0.00 | 49 | 1012.2 |
| 20260903020053 | 92 | 99 | 5.0 | 8.0 | 0.00 | 0.00 | 0.00 | 49 | 1012.2 |
| 20260903015531 | 92 | 117 | 5.0 | 11.0 | 0.00 | 0.00 | 0.00 | 49 | 1012.2 |
| 20260903015029 | 92 | 100 | 4.0 | 9.0 | 0.00 | 0.00 | 0.00 | 50 | 1012.1 |
| 20260903014527 | 92 | 108 | 4.0 | 8.0 | 0.00 | 0.00 | 0.00 | 49 | 1012.2 |
| 20260903014025 | 92 | 116 | 5.0 | 10.0 | 0.00 | 0.00 | 0.00 | 49 | 1012.2 |
| 20260903013523 | 92 | 116 | 4.0 | 13.0 | 0.00 | 0.00 | 0.00 | 49 | 1012.0 |
| 20260903013021 | 92 | 111 | 6.0 | 10.0 | 0.00 | 0.00 | 0.00 | 49 | 1011.9 |
| 20260903012519 | 93 | 108 | 4.0 | 10.0 | 0.00 | 0.00 | 0.00 | 48 | 1012.0 |
| 20260903012017 | 93 | 110 | 5.0 | 9.0 | 0.00 | 0.00 | 0.00 | 48 | 1012.0 |
| 20260903011535 | 93 | 97 | 4.0 | 11.0 | 0.00 | 0.00 | 0.00 | 48 | 1011.9 |
| 20260903011033 | 93 | 98 | 4.0 | 8.0 | 0.00 | 0.00 | 0.00 | 48 | 1011.9 |
| 20260903010530 | 93 | 109 | 4.0 | 8.0 | 0.00 | 0.00 | 0.00 | 48 | 1011.8 |
| 20260903010029 | 93 | 111 | 4.0 | 10.0 | 0.00 | 0.00 | 0.00 | 47 | 1011.8 |
| 20260903005526 | 93 | 101 | 4.0 | 12.0 | 0.00 | 0.00 | 0.00 | 47 | 1011.9 |
| 20260903005024 | 94 | 95 | 4.0 | 9.0 | 0.00 | 0.00 | 0.00 | 47 | 1011.8 |
| 20260903004523 | 94 | 107 | 5.0 | 11.0 | 0.00 | 0.00 | 0.00 | 47 | 1011.8 |
| 20260903004021 | 94 | 94 | 5.0 | 10.0 | 0.00 | 0.00 | 0.00 | 47 | 1011.9 |
| 20260903003518 | 95 | 95 | 6.0 | 17.0 | 0.00 | 0.00 | 0.00 | 46 | 1011.7 |
| 20260903003016 | 96 | 100 | 5.0 | 12.0 | 0.00 | 0.00 | 0.00 | 45 | 1011.8 |
| 20260903002534 | 96 | 88 | 6.0 | 14.0 | 0.00 | 0.00 | 0.00 | 41 | 1011.6 |
| 20260903002032 | 97 | 87 | 5.0 | 11.0 | 0.00 | 0.00 | 0.00 | 40 | 1011.6 |
| 20260903001530 | 97 | 87 | 6.0 | 13.0 | 0.00 | 0.00 | 0.00 | 40 | 1011.6 |
| 20260903001028 | 97 | 90 | 5.0 | 11.0 | 0.00 | 0.00 | 0.00 | 39 | 1011.6 |
| 20260903000526 | 97 | 94 | 3.0 | 6.0 | 0.00 | 0.00 | 0.00 | 39 | 1011.8 |
| 20260903000024 | 97 | 86 | 5.0 | 12.0 | 0.00 | 0.00 | 0.00 | 40 | 1011.6 |
| 20260902235522 | 98 | 86 | 6.0 | 11.0 | 0.00 | 0.00 | 0.00 | 39 | 1011.6 |
| 20260902235020 | 98 | 88 | 4.0 | 6.0 | 0.00 | 0.00 | 0.00 | 39 | 1011.6 |
| 20260902234518 | 97 | 84 | 4.0 | 10.0 | 0.00 | 0.00 | 0.00 | 39 | 1011.5 |
| 20260902234017 | 98 | 93 | 6.0 | 10.0 | 0.00 | 0.00 | 0.00 | 39 | 1011.7 |
| 20260902233535 | 98 | 87 | 6.0 | 11.0 | 0.00 | 0.00 | 0.00 | 38 | 1011.7 |
| 20260902233054 | 98 | 80 | 6.0 | 12.0 | 0.00 | 0.00 | 0.00 | 38 | 1011.7 |
| 20260902232531 | 98 | 84 | 4.0 | 9.0 | 0.00 | 0.00 | 0.00 | 39 | 1011.7 |
| 20260902232029 | 98 | 103 | 3.0 | 7.0 | 0.00 | 0.00 | 0.00 | 39 | 1011.9 |
| 20260902231528 | 98 | 103 | 4.0 | 10.0 | 0.00 | 0.00 | 0.00 | 39 | 1011.7 |
| 20260902231026 | 98 | 93 | 4.0 | 7.0 | 0.00 | 0.00 | 0.00 | 40 | 1011.6 |
| 20260902230544 | 98 | 85 | 4.0 | 9.0 | 0.00 | 0.00 | 0.00 | 40 | 1011.6 |
| 20260902230021 | 99 | 81 | 4.0 | 9.0 | 0.00 | 0.00 | 0.00 | 40 | 1011.7 |
| 20260902225519 | 98 | 95 | 3.0 | 10.0 | 0.00 | 0.00 | 0.00 | 40 | 1011.7 |
| 20260902225058 | 99 | 96 | 5.0 | 11.0 | 0.00 | 0.00 | 0.00 | 40 | 1011.8 |
| 20260902224515 | 98 | 90 | 3.0 | 8.0 | 0.00 | 0.00 | 0.00 | 41 | 1011.7 |
| 20260902224033 | 98 | 63 | 5.0 | 12.0 | 0.00 | 0.00 | 0.00 | 41 | 1011.8 |
| 20260902223531 | 98 | 56 | 5.0 | 12.0 | 0.00 | 0.00 | 0.00 | 41 | 1011.8 |
| 20260902223028 | 98 | 70 | 6.0 | 13.0 | 0.00 | 0.00 | 0.00 | 41 | 1011.9 |
| 20260902222545 | 98 | 79 | 4.0 | 10.0 | 0.00 | 0.00 | 0.00 | 41 | 1012.0 |
| 20260902222022 | 98 | 64 | 4.0 | 10.0 | 0.00 | 0.00 | 0.00 | 40 | 1012.0 |
| 20260902221519 | 98 | 47 | 6.0 | 9.0 | 0.00 | 0.00 | 0.00 | 41 | 1012.0 |
| 20260902221017 | 98 | 79 | 5.0 | 11.0 | 0.00 | 0.00 | 0.00 | 40 | 1012.1 |
| 20260902220534 | 98 | 81 | 5.0 | 9.0 | 0.00 | 0.00 | 0.00 | 40 | 1012.0 |
| 20260902220031 | 98 | 84 | 5.0 | 11.0 | 0.00 | 0.00 | 0.00 | 40 | 1012.1 |
| 20260902215529 | 98 | 57 | 7.0 | 13.0 | 0.00 | 0.00 | 0.00 | 40 | 1012.2 |
| 20260902215026 | 98 | 66 | 5.0 | 10.0 | 0.00 | 0.00 | 0.00 | 38 | 1012.3 |
| 20260902214544 | 98 | 73 | 4.0 | 10.0 | 0.00 | 0.00 | 0.00 | 39 | 1012.2 |
| 20260902214022 | 98 | 62 | 4.0 | 9.0 | 0.00 | 0.00 | 0.00 | 39 | 1012.3 |
| 20260902213520 | 98 | 75 | 5.0 | 10.0 | 0.00 | 0.00 | 0.00 | 39 | 1012.4 |
| 20260902213018 | 98 | 80 | 4.0 | 8.0 | 0.00 | 0.00 | 0.00 | 39 | 1012.5 |
| 20260902212534 | 98 | 75 | 5.0 | 9.0 | 0.00 | 0.00 | 0.00 | 40 | 1012.4 |
| 20260902212032 | 98 | 90 | 6.0 | 12.0 | 0.00 | 0.00 | 0.00 | 40 | 1012.6 |
| 20260902211530 | 98 | 87 | 7.0 | 13.0 | 0.00 | 0.00 | 0.00 | 40 | 1012.5 |
| 20260902211028 | 98 | 82 | 4.0 | 8.0 | 0.00 | 0.00 | 0.00 | 40 | 1012.5 |
| 20260902210527 | 98 | 92 | 4.0 | 8.0 | 0.00 | 0.00 | 0.00 | 40 | 1012.6 |
| 20260902210024 | 98 | 88 | 4.0 | 9.0 | 0.00 | 0.00 | 0.00 | 39 | 1012.8 |
| 20260902205522 | 98 | 84 | 4.0 | 9.0 | 0.00 | 0.00 | 0.00 | 39 | 1012.9 |
| 20260902205019 | 99 | 75 | 3.0 | 10.0 | 0.00 | 0.00 | 0.00 | 38 | 1012.7 |
| 20260902204537 | 99 | 77 | 3.0 | 7.0 | 0.00 | 0.00 | 0.00 | 38 | 1012.8 |
| 20260902204036 | 98 | 87 | 4.0 | 10.0 | 0.00 | 0.00 | 0.00 | 39 | 1012.8 |
| 20260902203533 | 98 | 88 | 5.0 | 12.0 | 0.00 | 0.00 | 0.00 | 39 | 1012.9 |
| 20260902203032 | 98 | 64 | 5.0 | 11.0 | 0.00 | 0.00 | 0.00 | 40 | 1012.9 |
| 20260902202530 | 98 | 81 | 4.0 | 9.0 | 0.00 | 0.00 | 0.00 | 39 | 1013.0 |
| 20260902202027 | 98 | 53 | 5.0 | 10.0 | 0.00 | 0.00 | 0.00 | 40 | 1013.2 |
| 20260902201525 | 97 | 58 | 4.0 | 12.0 | 0.00 | 0.00 | 0.00 | 41 | 1013.3 |
| 20260902201023 | 98 | 44 | 4.0 | 8.0 | 0.00 | 0.00 | 0.00 | 41 | 1013.4 |
| 20260902200542 | 98 | 89 | 4.0 | 11.0 | 0.00 | 0.00 | 0.00 | 41 | 1013.4 |
| 20260902200020 | 97 | 59 | 4.0 | 8.0 | 0.00 | 0.00 | 0.00 | 42 | 1013.5 |
| 20260902195518 | 98 | 76 | 6.0 | 13.0 | 0.00 | 0.00 | 0.00 | 41 | 1013.7 |
| 20260902195016 | 97 | 72 | 3.0 | 6.0 | 0.00 | 0.00 | 0.00 | 42 | 1013.8 |
| 20260902194535 | 97 | 71 | 4.0 | 9.0 | 0.00 | 0.00 | 0.00 | 42 | 1013.9 |
| 20260902194034 | 98 | 101 | 3.0 | 9.0 | 0.00 | 0.00 | 0.00 | 41 | 1013.9 |
| 20260902193532 | 97 | 76 | 4.0 | 11.0 | 0.00 | 0.00 | 0.00 | 42 | 1013.9 |